Regional Weather Roundup
Issued by NWS

Home | Current Version | Previous Version | Graphics & Text | Print | Product List | Glossary On
Versions: 1 2 3 4 5 6 7 8 9 10 11 12 13 14 15 16 17 18 19 20 21 22 23 24 25 26 27 28 29 30 31 32 33 34 35 36 37 38 39 40 41 42 43 44 45 46 47 48 49 50
000
ASUS45 KSLC 302010
RWRUT
UTAH REGIONAL WEATHER ROUNDUP
NATIONAL WEATHER SERVICE SALT LAKE CITY UT
200 PM MDT THU JUL 30 2015

UTZ001>011-023>025-302100-

NORTHERN UTAH

CITY           SKY/WX    TMP DP  RH WIND       PRES   REMARKS
BRIGHAM CITY   SUNNY     87  19   8 CALM      30.30F
HILL AFB       NOT AVBL
LOGAN          SUNNY     85  26  11 VRB3      30.32F
OGDEN          SUNNY     87  26  11 VRB6      30.29F
PROVO AIRPORT  SUNNY     82  37  20 VRB6      30.31F
SALT LAKE CITY MOSUNNY   89  32  13 NW10      30.27F
VERNAL         SUNNY     87  17   7 S7        30.32F
WENDOVER       SUNNY     88  25  10 E7        30.29
HEBER CITY     SUNNY     86  19   8 CALM      30.36F
WEST JORDAN    SUNNY     88  36  15 N7        30.31F

$$

UTZ012>022-026-027-302100-

SOUTHERN/CENTRAL UTAH

CITY           SKY/WX    TMP DP  RH WIND       PRES   REMARKS
BLANDING       SUNNY     85  45  25 CALM      30.41F
BRYCE CANYON   MOSUNNY   81  31  16 SE13G21   30.47F
CEDAR CITY     MOSUNNY   91  29  11 VRB6      30.30F
DELTA          SUNNY     91  23   8 NW8       30.28S
HANKSVILLE     SUNNY     95  32  11 SE6       30.24F HX  90
MILFORD        SUNNY     93  32  11 N12G21    30.27F
MOAB/CYNLANDS  SUNNY     93  27   9 SW3       30.22F
PRICE          SUNNY     90  17   7 SE5       30.33F
ST GEORGE      CLEAR     97  45  16 W7        30.11F HX  93

$$

REGIONAL REPORTS     COLORADO/ARIZONA

CITY           SKY/WX    TMP DP  RH WIND       PRES   REMARKS
CRAIG, CO      SUNNY     89  21   8 VRB5G16   30.38F
GRAND JUNCTION SUNNY     89  36  15 NW8G17    30.26F
RIFLE          SUNNY     90  22   8 VRB5      30.30F
MONTROSE       SUNNY     89  26  10 W10       30.33F
CORTEZ         SUNNY     88  45  22 S6        30.33F
PAGE, AZ       PTSUNNY   89  51  27 CALM      30.22F
GRAND CANYON   CLOUDY    77  48  35 SE5       30.41F
KINGMAN        MOSUNNY   96  52  22 VRB5      30.14F HX  93
FLAGSTAFF      CLOUDY    70  56  61 NE13      30.44F

$$

REGIONAL REPORTS    NEVADA/IDAHO/WYOMING

CITY           SKY/WX    TMP DP  RH WIND       PRES   REMARKS
LAS VEGAS, NV  CLOUDY    99  47  17 N7        30.00F HX  95
ELY            SUNNY     88  19   8 MISG      30.37F
ELKO           SUNNY     90  23   9 S8        30.31F
POCATELLO, ID  SUNNY     87  26  11 SW8       30.32F
BURLEY         SUNNY     87  33  14 N6        30.27F
EVANSTON, WY   SUNNY     81   6   5 W12       30.48F
ROCK SPRINGS   SUNNY     78  21  12 NW5       30.44F
KEMMERER       SUNNY     79  21  11 NW9G17    30.48F

$$



USA.gov is the U.S. government's official web portal to all federal, state and local government web resources and services.